SCP
0 -0 -0 0 0 0 0 0 0 0 0 0 0 0 0 0 0 0 0 0 0 0 0 0 0 0 0 0 0 0 0 0 0 0 0 0 0 0
0 0 0 0 0 0 0 0 0 0 0 0 0 0 0 0 0 0 0 0 0 0 0 0 0 0 0 0 0 0 0 0 0 0 0 0 0 0
0 0 -0 0 0 0 0 0 0 0 0 0 0 0 0 0 0 0 0 0 0 0 0 0 0 0 0 0 0 0 0 0 0 0 0 0 0 0
0 0 -0 0 0 0 0 0 0 0 0 0 0 0 0 0 0 0 0 0 0 0 0 0 0 0 0 0 0 0 0 0 0 0 0 0 0 0
0 0 -0 -0 -0 0 0 0 0 0 0 0 0 0 0 0 0 0 0 0 0 0 0 0 0 0 0 0 0 0 0 0 0 0 0 0 0 0
0 0 0 -0 -0 -0 0 0 0 0 0 0 0 0 0 0 0 0 0 0 0 0 0 0 0 0 0 0 0 0 0 0 0 0 0 0 0 0
0 0 0 -0 -0 -0 0 0 0 0 0 0 0 0 0 0 0 0 0 0 0 0 0 0 0 0 0 0 0 0 0 0 0 0 0 0 -0 -0
0 0 0 -0 -0 -0 -0 0 0 0 0 0 0 0 0 0 0 0 0 0 0 0 0 0 0 0 0 0 0 0 0 0 0 0 0 -0 -0 -0
0 0 0 -0 -0 -0 -0 0 0 0 0 0 0 0 0 0 0 0 0 0 0 0 0 0 0 0 0 0 0 0 0 0 0 0 -0 -0 -0 -0
0 0 0 -0 -0 -0 -0 -0 0 0 0 0 0 0 0 0 0 0 0 0 0 0 0 0 0 0 0 0 0 0 0 0 0 -0 -0 0 -0 -0
0 0 0 -0 -0 -0 -0 -0 0 0 0 0 0 0 0 0 0 0 0 0 0 0 0 0 0 0 0 0 0 0 0 0 0 0 0 -0 -0 -0
0 0 0 -0 -0 -0 -0 -0 -0 0 0 0 0 0 0 0 0 0 0 0 0 0 0 0 0 0 0 0 0 0 0 0 0 0 -0 -0 -0 -0
0 0 0 -0 -0 -0 -0 -0 -0 -0 0 0 0 0 0 0 0 0 0 0 0 0 0 0 0 0 0 0 0 0 0 0 0 0 -0 -0 -0 -0
0 0 0 -0 -0 -0 -0 -0 -0 -0 0 0 0 0 0 0 0 0 0 0 0 0 0 0 0 0 0 0 0 0 0 0 0 0 0 -0 -0 -0
0 0 0 -0 -0 -0 -0 -0 -0 -0 -0 0 0 0 0 0 -0 0 0 0 0 0 0 0 0 0 0 0 0 0 0 0 0 0 0 0 -0 -0
0 0 0 0 -0 -0 0 0 0 0 0 0 0 0 0 0 0 0 0 0 0 0 0 0 0 0 0 0 0 0 0 0 0 0 0 0 -0 -0
0 0 0 0 0 0 0 0 0 0 0 0 0 0 0 0 0 0 0 0 0 0 0 0 0 0 0 0 0 0 0 0 0 0 0 0 -0 -0
0 0 0 0 0 0 0 0 0 0 0 0 0 0 0 0 0 0 0 0 0 0 0 0 0 0 0 0 0 0 0 0 0 0 0 0 -0 0
0 0 0 0 0 0 0 0 0 0 0 0 0 0 0 0 0 0 0 0 0 0 0 0 0 0 0 0 0 0 0 0 0 0 0 0 0 0
0 0 0 0 0 0 0 0 0 0 0 0 0 0 0 0 0 0 0 0 0 0 0 0 0 0 0 0 0 0 0 0 0 0 0 0 0 -0
0 0 0 0 0 0 0 0 0 0 0 0 0 0 0 0 0 0 0 0 0 0 0 0 0 0 0 0 0 0 0 0 0 0 0 0 0 0
0 0 0 0 0 0 0 0 0 0 0 0 0 0 0 0 0 0 0 0 0 0 0 0 0 0 0 0 0 0 0 0 0 0 0 0 0 0
0 0 0 0 0 0 0 0 0 0 0 0 0 0 0 0 0 0 0 0 0 0 0 0 0 0 0 0 0 0 0 0 0 0 0 -0 -0 -0
Wind_Speed_500mb
47 51 55 57 62 58 54 41 32 22 24 26 25 20 14 12 13 13 13 12 9 7 8 8 7 5 9 15 9 2 2 7 11 11 14 18 22 26
44 49 53 56 64 63 60 50 31 26 13 23 22 16 11 8 10 11 14 14 12 10 4 11 5 4 2 3 4 1 4 7 9 8 11 16 20 25
41 47 50 53 60 68 67 57 40 25 21 17 15 13 9 9 6 6 7 6 8 9 9 5 4 7 12 10 8 5 7 7 6 8 13 17 20 27
40 44 47 52 57 63 69 61 48 26 20 17 14 9 5 4 7 5 8 7 6 6 5 4 2 7 11 10 9 8 8 6 9 12 15 18 22 27
39 41 46 49 56 65 67 63 52 35 19 14 11 9 3 4 5 5 6 7 6 5 5 10 11 14 14 11 9 9 8 10 8 15 19 19 24 28
32 36 42 44 52 61 63 61 53 42 26 16 9 7 4 4 8 7 7 6 4 3 1 8 14 16 11 13 13 11 11 10 16 19 20 23 26 30
27 31 35 37 41 48 54 54 50 46 34 23 19 13 10 5 8 12 11 7 6 5 6 7 14 17 14 12 10 11 10 13 20 21 21 24 28 31
28 27 31 35 36 44 49 46 45 40 37 30 21 19 16 10 1 3 11 11 9 9 9 12 20 16 17 14 16 15 14 18 19 20 21 26 31 33
26 27 28 32 33 41 46 45 47 38 33 25 22 23 17 11 8 5 7 10 6 10 10 18 24 17 18 16 24 20 18 17 19 21 22 26 32 35
24 24 27 29 33 38 41 44 48 44 37 33 27 23 17 11 4 4 7 6 14 16 11 24 28 21 20 20 24 22 18 18 20 22 22 25 29 33
17 19 22 24 31 33 34 41 44 46 41 33 29 20 16 13 12 9 9 16 23 16 9 29 31 27 22 28 28 20 19 19 21 22 23 25 28 30
13 14 17 22 25 30 33 36 39 44 41 32 26 24 23 17 11 5 5 12 15 11 17 37 37 35 30 29 25 20 17 14 20 23 24 26 28 31
14 12 14 20 21 28 29 31 34 35 34 31 25 24 25 24 15 9 7 13 19 10 28 37 24 26 23 32 26 18 17 18 20 26 26 28 30 36
20 18 20 23 24 25 28 29 27 29 29 33 31 30 31 33 25 18 15 12 13 23 37 25 18 32 42 38 31 25 24 26 28 27 29 33 32 43
23 20 20 22 21 23 26 27 24 27 30 35 39 34 29 23 24 21 19 21 26 29 34 21 28 40 38 34 34 28 29 34 32 29 28 31 40 45
22 18 17 19 22 25 22 26 30 32 34 34 35 28 26 27 24 28 29 32 35 36 26 31 37 31 36 31 25 28 32 23 30 33 29 38 44 44
24 17 11 11 15 23 29 29 30 29 34 35 32 30 28 29 35 37 34 34 38 44 40 37 32 31 33 29 31 30 30 31 31 31 35 43 44 44
16 14 14 16 20 24 30 34 32 36 40 36 34 32 32 31 29 34 35 35 37 40 40 38 33 36 36 38 32 30 29 31 32 33 38 47 46 42
13 15 15 15 19 22 25 32 38 39 38 37 37 35 33 34 28 29 34 33 34 34 36 32 30 29 34 42 36 29 32 37 39 42 42 45 45 46
23 16 13 12 15 15 19 23 28 33 37 38 41 40 35 34 32 31 27 30 27 25 27 24 21 24 32 36 40 33 31 31 34 40 40 40 43 45
31 23 16 11 11 11 14 19 23 28 37 39 40 43 39 36 36 33 27 29 29 25 22 25 24 22 33 31 34 33 30 33 33 34 38 43 47 45
30 30 25 17 12 9 9 13 16 19 25 34 36 38 42 38 36 32 28 26 27 26 27 27 26 31 30 25 29 26 22 24 35 37 30 28 37 41
22 24 26 25 21 12 6 7 10 13 19 25 32 35 38 40 34 32 26 25 27 27 25 25 25 29 27 27 30 37 44 46 43 44 46 46 45 44
Wind_Direction_500mb
13 15 15 13 18 21 17 12 359 332 345 7 20 33 41 65 72 84 105 116 120 145 173 191 213 240 272 269 278 276 307 360 357 7 344 354 354 349
12 13 15 12 16 21 19 16 11 352 324 352 15 17 43 71 89 90 87 84 77 74 122 164 145 39 1 173 177 155 27 18 17 8 13 4 3 4
11 14 11 15 9 16 18 16 13 4 353 353 6 6 27 55 79 91 93 78 58 47 46 82 77 96 102 115 103 67 38 32 58 48 34 24 16 15
7 13 9 14 11 13 15 15 13 9 350 341 346 336 335 75 80 89 105 101 96 78 54 73 171 147 136 100 80 54 34 64 76 55 42 32 19 18
7 10 10 12 14 11 12 12 14 16 8 346 347 357 304 188 169 166 128 133 127 102 74 70 123 118 121 111 86 62 64 76 90 63 41 31 24 22
7 10 10 12 16 10 9 9 14 21 21 20 11 14 26 190 205 215 211 208 190 197 146 90 127 125 119 96 73 65 84 85 76 56 41 30 30 29
3 11 12 13 17 10 11 9 13 22 30 41 43 46 47 80 212 217 212 201 195 191 191 153 147 130 108 92 82 98 99 84 72 53 39 33 40 35
350 9 8 12 11 15 15 16 16 17 27 34 41 47 47 51 65 188 203 174 160 160 180 165 139 121 111 101 94 102 91 72 63 54 40 46 46 36
349 357 11 13 7 21 13 17 19 24 28 24 33 42 41 39 45 113 155 173 194 150 160 148 139 122 116 107 110 102 82 64 51 53 49 57 53 44
350 356 7 9 15 16 12 19 22 23 24 24 28 31 27 29 86 161 181 192 136 131 149 139 133 120 108 102 114 107 87 63 54 51 56 65 59 48
355 356 7 9 25 18 12 16 21 23 24 28 29 26 29 42 61 74 118 164 133 130 149 148 128 112 105 114 113 99 83 61 58 57 62 72 66 52
15 10 11 22 22 22 19 19 19 19 19 22 30 32 33 30 30 42 108 168 156 135 158 130 129 116 103 112 111 102 88 58 60 60 71 77 84 67
42 30 22 42 29 25 22 24 19 13 20 24 34 39 47 44 49 61 122 167 167 170 159 146 143 133 125 120 117 110 82 63 74 70 74 88 87 77
56 46 47 42 32 29 23 23 20 13 18 29 38 41 37 37 49 66 95 144 161 152 150 147 128 141 143 134 117 103 75 79 80 76 75 83 96 88
59 56 44 35 28 26 29 24 22 28 29 35 38 34 25 36 48 62 86 106 121 134 134 119 132 144 147 139 122 104 77 76 80 85 86 91 96 92
54 53 46 32 25 24 23 25 26 30 32 37 48 42 41 62 70 71 83 104 117 122 122 127 140 146 145 130 108 85 72 92 82 83 90 92 93 99
47 39 48 52 49 46 43 37 37 38 41 38 44 58 56 64 75 78 77 96 110 122 125 129 136 143 134 118 102 82 69 78 87 95 97 91 94 97
41 52 50 49 56 56 53 48 43 41 44 38 45 55 65 67 76 84 90 93 111 122 124 124 133 134 125 103 88 78 67 87 89 92 96 92 93 96
43 59 55 55 51 44 51 52 44 41 42 37 43 54 62 77 86 90 90 98 107 124 127 132 136 139 127 102 87 77 88 92 92 88 85 88 92 93
50 57 56 53 57 49 41 51 51 43 45 40 41 48 56 65 81 94 91 95 97 109 129 140 139 141 131 113 100 87 96 90 88 91 86 85 91 96
49 51 49 45 50 44 40 40 44 42 42 42 40 41 47 60 69 80 96 92 93 102 123 128 134 134 132 117 102 98 85 92 96 99 100 96 92 95
43 47 49 44 44 42 26 37 37 37 42 43 43 41 41 49 61 71 84 104 98 107 116 127 123 135 134 114 101 95 108 109 80 87 93 95 97 86
43 43 42 43 45 43 41 26 31 29 37 42 42 42 42 42 51 60 71 84 101 94 105 117 123 137 129 108 93 95 105 109 104 97 91 84 82 84
Wind_Speed_850mb
47 51 55 57 62 58 54 41 32 22 24 26 25 20 14 12 13 13 13 12 9 7 8 8 7 5 9 15 9 2 2 7 11 11 14 18 22 26
44 49 53 56 64 63 60 50 31 26 13 23 22 16 11 8 10 11 14 14 12 10 4 11 5 4 2 3 4 1 4 7 9 8 11 16 20 25
41 47 50 53 60 68 67 57 40 25 21 17 15 13 9 9 6 6 7 6 8 9 9 5 4 7 12 10 8 5 7 7 6 8 13 17 20 27
40 44 47 52 57 63 69 61 48 26 20 17 14 9 5 4 7 5 8 7 6 6 5 4 2 7 11 10 9 8 8 6 9 12 15 18 22 27
39 41 46 49 56 65 67 63 52 35 19 14 11 9 3 4 5 5 6 7 6 5 5 10 11 14 14 11 9 9 8 10 8 15 19 19 24 28
32 36 42 44 52 61 63 61 53 42 26 16 9 7 4 4 8 7 7 6 4 3 1 8 14 16 11 13 13 11 11 10 16 19 20 23 26 30
27 31 35 37 41 48 54 54 50 46 34 23 19 13 10 5 8 12 11 7 6 5 6 7 14 17 14 12 10 11 10 13 20 21 21 24 28 31
28 27 31 35 36 44 49 46 45 40 37 30 21 19 16 10 1 3 11 11 9 9 9 12 20 16 17 14 16 15 14 18 19 20 21 26 31 33
26 27 28 32 33 41 46 45 47 38 33 25 22 23 17 11 8 5 7 10 6 10 10 18 24 17 18 16 24 20 18 17 19 21 22 26 32 35
24 24 27 29 33 38 41 44 48 44 37 33 27 23 17 11 4 4 7 6 14 16 11 24 28 21 20 20 24 22 18 18 20 22 22 25 29 33
17 19 22 24 31 33 34 41 44 46 41 33 29 20 16 13 12 9 9 16 23 16 9 29 31 27 22 28 28 20 19 19 21 22 23 25 28 30
13 14 17 22 25 30 33 36 39 44 41 32 26 24 23 17 11 5 5 12 15 11 17 37 37 35 30 29 25 20 17 14 20 23 24 26 28 31
14 12 14 20 21 28 29 31 34 35 34 31 25 24 25 24 15 9 7 13 19 10 28 37 24 26 23 32 26 18 17 18 20 26 26 28 30 36
20 18 20 23 24 25 28 29 27 29 29 33 31 30 31 33 25 18 15 12 13 23 37 25 18 32 42 38 31 25 24 26 28 27 29 33 32 43
23 20 20 22 21 23 26 27 24 27 30 35 39 34 29 23 24 21 19 21 26 29 34 21 28 40 38 34 34 28 29 34 32 29 28 31 40 45
22 18 17 19 22 25 22 26 30 32 34 34 35 28 26 27 24 28 29 32 35 36 26 31 37 31 36 31 25 28 32 23 30 33 29 38 44 44
24 17 11 11 15 23 29 29 30 29 34 35 32 30 28 29 35 37 34 34 38 44 40 37 32 31 33 29 31 30 30 31 31 31 35 43 44 44
16 14 14 16 20 24 30 34 32 36 40 36 34 32 32 31 29 34 35 35 37 40 40 38 33 36 36 38 32 30 29 31 32 33 38 47 46 42
13 15 15 15 19 22 25 32 38 39 38 37 37 35 33 34 28 29 34 33 34 34 36 32 30 29 34 42 36 29 32 37 39 42 42 45 45 46
23 16 13 12 15 15 19 23 28 33 37 38 41 40 35 34 32 31 27 30 27 25 27 24 21 24 32 36 40 33 31 31 34 40 40 40 43 45
31 23 16 11 11 11 14 19 23 28 37 39 40 43 39 36 36 33 27 29 29 25 22 25 24 22 33 31 34 33 30 33 33 34 38 43 47 45
30 30 25 17 12 9 9 13 16 19 25 34 36 38 42 38 36 32 28 26 27 26 27 27 26 31 30 25 29 26 22 24 35 37 30 28 37 41
22 24 26 25 21 12 6 7 10 13 19 25 32 35 38 40 34 32 26 25 27 27 25 25 25 29 27 27 30 37 44 46 43 44 46 46 45 44
Wind_Direction_850mb
13 15 15 13 18 21 17 12 359 332 345 7 20 33 41 65 72 84 105 116 120 145 173 191 213 240 272 269 278 276 307 360 357 7 344 354 354 349
12 13 15 12 16 21 19 16 11 352 324 352 15 17 43 71 89 90 87 84 77 74 122 164 145 39 1 173 177 155 27 18 17 8 13 4 3 4
11 14 11 15 9 16 18 16 13 4 353 353 6 6 27 55 79 91 93 78 58 47 46 82 77 96 102 115 103 67 38 32 58 48 34 24 16 15
7 13 9 14 11 13 15 15 13 9 350 341 346 336 335 75 80 89 105 101 96 78 54 73 171 147 136 100 80 54 34 64 76 55 42 32 19 18
7 10 10 12 14 11 12 12 14 16 8 346 347 357 304 188 169 166 128 133 127 102 74 70 123 118 121 111 86 62 64 76 90 63 41 31 24 22
7 10 10 12 16 10 9 9 14 21 21 20 11 14 26 190 205 215 211 208 190 197 146 90 127 125 119 96 73 65 84 85 76 56 41 30 30 29
3 11 12 13 17 10 11 9 13 22 30 41 43 46 47 80 212 217 212 201 195 191 191 153 147 130 108 92 82 98 99 84 72 53 39 33 40 35
350 9 8 12 11 15 15 16 16 17 27 34 41 47 47 51 65 188 203 174 160 160 180 165 139 121 111 101 94 102 91 72 63 54 40 46 46 36
349 357 11 13 7 21 13 17 19 24 28 24 33 42 41 39 45 113 155 173 194 150 160 148 139 122 116 107 110 102 82 64 51 53 49 57 53 44
350 356 7 9 15 16 12 19 22 23 24 24 28 31 27 29 86 161 181 192 136 131 149 139 133 120 108 102 114 107 87 63 54 51 56 65 59 48
355 356 7 9 25 18 12 16 21 23 24 28 29 26 29 42 61 74 118 164 133 130 149 148 128 112 105 114 113 99 83 61 58 57 62 72 66 52
15 10 11 22 22 22 19 19 19 19 19 22 30 32 33 30 30 42 108 168 156 135 158 130 129 116 103 112 111 102 88 58 60 60 71 77 84 67
42 30 22 42 29 25 22 24 19 13 20 24 34 39 47 44 49 61 122 167 167 170 159 146 143 133 125 120 117 110 82 63 74 70 74 88 87 77
56 46 47 42 32 29 23 23 20 13 18 29 38 41 37 37 49 66 95 144 161 152 150 147 128 141 143 134 117 103 75 79 80 76 75 83 96 88
59 56 44 35 28 26 29 24 22 28 29 35 38 34 25 36 48 62 86 106 121 134 134 119 132 144 147 139 122 104 77 76 80 85 86 91 96 92
54 53 46 32 25 24 23 25 26 30 32 37 48 42 41 62 70 71 83 104 117 122 122 127 140 146 145 130 108 85 72 92 82 83 90 92 93 99
47 39 48 52 49 46 43 37 37 38 41 38 44 58 56 64 75 78 77 96 110 122 125 129 136 143 134 118 102 82 69 78 87 95 97 91 94 97
41 52 50 49 56 56 53 48 43 41 44 38 45 55 65 67 76 84 90 93 111 122 124 124 133 134 125 103 88 78 67 87 89 92 96 92 93 96
43 59 55 55 51 44 51 52 44 41 42 37 43 54 62 77 86 90 90 98 107 124 127 132 136 139 127 102 87 77 88 92 92 88 85 88 92 93
50 57 56 53 57 49 41 51 51 43 45 40 41 48 56 65 81 94 91 95 97 109 129 140 139 141 131 113 100 87 96 90 88 91 86 85 91 96
49 51 49 45 50 44 40 40 44 42 42 42 40 41 47 60 69 80 96 92 93 102 123 128 134 134 132 117 102 98 85 92 96 99 100 96 92 95
43 47 49 44 44 42 26 37 37 37 42 43 43 41 41 49 61 71 84 104 98 107 116 127 123 135 134 114 101 95 108 109 80 87 93 95 97 86
43 43 42 43 45 43 41 26 31 29 37 42 42 42 42 42 51 60 71 84 101 94 105 117 123 137 129 108 93 95 105 109 104 97 91 84 82 84